SB KEPS @ AMSAT $ORB09120.O Orbital Elements 09120.OSCAR
HR AMSAT ORBITAL ELEMENTS FOR OSCAR SATELLITES FROM WA5QGD FORT WORTH,TX April 30, 2009 Send Subscribe/unsubscribe to KEPS at http://www.amsat.org/mailman/listinfo/keps BID: ORB09120.O TO ALL RADIO AMATEURS BT
Satellite: AO-10 Catalog number: 14129 Epoch time: 09118.18873775 Element set: 0651 Inclination: 025.9286 deg RA of node: 159.6671 deg Eccentricity: 0.5993688 Arg of perigee: 217.9761 deg Mean anomaly: 078.9282 deg Mean motion: 02.05873042 rev/day Decay rate: -2.66e-06 rev/day^2 Epoch rev: 19459 Checksum: 363
Satellite: AO-40 Catalog number: 26609 Epoch time: 09118.36733132 Element set: 221 Inclination: 009.2797 deg RA of node: 021.7278 deg Eccentricity: 0.7965204 Arg of perigee: 198.8043 deg Mean anomaly: 090.6082 deg Mean motion: 01.25583743 rev/day Decay rate: -3.22e-06 rev/day^2 Epoch rev: 3900 Checksum: 299
Satellite: SO-33 Catalog number: 25509 Epoch time: 09119.68633864 Element set: 0443 Inclination: 031.4356 deg RA of node: 326.7489 deg Eccentricity: 0.0355156 Arg of perigee: 274.3443 deg Mean anomaly: 081.6686 deg Mean motion: 14.28250666 rev/day Decay rate: -3.2e-07 rev/day^2 Epoch rev: 54889 Checksum: 341
Satellite: AO-07 Catalog number: 07530 Epoch time: 09119.72609173 Element set: 0466 Inclination: 101.4306 deg RA of node: 146.1766 deg Eccentricity: 0.0011693 Arg of perigee: 005.4526 deg Mean anomaly: 354.6673 deg Mean motion: 12.53575632 rev/day Decay rate: -2.7e-07 rev/day^2 Epoch rev: 57664 Checksum: 303
Satellite: RS-15 Catalog number: 23439 Epoch time: 09119.73155766 Element set: 0206 Inclination: 064.8153 deg RA of node: 343.1762 deg Eccentricity: 0.0147404 Arg of perigee: 060.9697 deg Mean anomaly: 300.5904 deg Mean motion: 11.27553439 rev/day Decay rate: -3.9e-07 rev/day^2 Epoch rev: 59065 Checksum: 315
Satellite: FO-29 Catalog number: 24278 Epoch time: 09119.78676955 Element set: 0035 Inclination: 098.5611 deg RA of node: 000.3159 deg Eccentricity: 0.0351386 Arg of perigee: 115.7494 deg Mean anomaly: 248.0348 deg Mean motion: 13.52942988 rev/day Decay rate: -3.3e-07 rev/day^2 Epoch rev: 62720 Checksum: 335
Satellite: UO-11 Catalog number: 14781 Epoch time: 09120.27077720 Element set: 948 Inclination: 098.1104 deg RA of node: 164.3046 deg Eccentricity: 0.0009952 Arg of perigee: 127.9587 deg Mean anomaly: 232.2531 deg Mean motion: 14.79706314 rev/day Decay rate: -2.42e-06 rev/day^2 Epoch rev: 35074 Checksum: 297
Satellite: RS-22 Catalog number: 27939 Epoch time: 09120.67523735 Element set: 778 Inclination: 097.9511 deg RA of node: 357.2582 deg Eccentricity: 0.0012493 Arg of perigee: 283.7454 deg Mean anomaly: 076.2375 deg Mean motion: 14.63311755 rev/day Decay rate: 8.0e-07 rev/day^2 Epoch rev: 29862 Checksum: 334
Satellite: PO-63 Catalog number: 29712 Epoch time: 09120.70807658 Element set: 444 Inclination: 097.8320 deg RA of node: 178.2421 deg Eccentricity: 0.0015508 Arg of perigee: 070.1979 deg Mean anomaly: 290.0895 deg Mean motion: 14.80522612 rev/day Decay rate: 4.38e-06 rev/day^2 Epoch rev: 12444 Checksum: 305
Satellite: VO-52 Catalog number: 28650 Epoch time: 09120.77381374 Element set: 214 Inclination: 097.7445 deg RA of node: 183.9141 deg Eccentricity: 0.0027175 Arg of perigee: 181.8482 deg Mean anomaly: 178.2610 deg Mean motion: 14.81576940 rev/day Decay rate: -6.7e-07 rev/day^2 Epoch rev: 21562 Checksum: 315
/EX SB KEPS @ AMSAT $ORB09120.D Orbital Elements 09120.MICROS
HR AMSAT ORBITAL ELEMENTS FOR THE MICROSATS FROM WA5QGD FORT WORTH,TX April 30, 2009 Send Subscribe/unsubscribe to KEPS at http://www.amsat.org/mailman/listinfo/keps BID: ORB09120.D TO ALL RADIO AMATEURS BT
Satellite: AO-16 Catalog number: 20439 Epoch time: 09119.42688895 Element set: 0594 Inclination: 098.2762 deg RA of node: 090.0597 deg Eccentricity: 0.0010225 Arg of perigee: 320.9390 deg Mean anomaly: 039.1055 deg Mean motion: 14.31822253 rev/day Decay rate: -6.0e-08 rev/day^2 Epoch rev: 00617 Checksum: 300
Satellite: AO-27 Catalog number: 22825 Epoch time: 09119.63142222 Element set: 233 Inclination: 098.4338 deg RA of node: 074.5941 deg Eccentricity: 0.0009180 Arg of perigee: 051.7209 deg Mean anomaly: 308.4808 deg Mean motion: 14.29263718 rev/day Decay rate: -4.3e-07 rev/day^2 Epoch rev: 81297 Checksum: 305
Satellite: CP3 Catalog number: 31128 Epoch time: 09119.63940540 Element set: 0618 Inclination: 097.9890 deg RA of node: 174.9325 deg Eccentricity: 0.0104029 Arg of perigee: 075.7232 deg Mean anomaly: 285.5498 deg Mean motion: 14.52037022 rev/day Decay rate: -4.6e-07 rev/day^2 Epoch rev: 10785 Checksum: 308
Satellite: NO-44 Catalog number: 26931 Epoch time: 09119.66039957 Element set: 0158 Inclination: 067.0512 deg RA of node: 189.3618 deg Eccentricity: 0.0005307 Arg of perigee: 272.5548 deg Mean anomaly: 087.4945 deg Mean motion: 14.29553382 rev/day Decay rate: -2.55e-06 rev/day^2 Epoch rev: 39564 Checksum: 342
Satellite: LO-19 Catalog number: 20442 Epoch time: 09119.91107455 Element set: 0513 Inclination: 098.2379 deg RA of node: 097.9696 deg Eccentricity: 0.0011108 Arg of perigee: 314.5802 deg Mean anomaly: 045.4482 deg Mean motion: 14.32058041 rev/day Decay rate: -6.3e-07 rev/day^2 Epoch rev: 00640 Checksum: 287
Satellite: CP4 Catalog number: 31132 Epoch time: 09120.15222967 Element set: 594 Inclination: 097.9986 deg RA of node: 179.1896 deg Eccentricity: 0.0086768 Arg of perigee: 063.3890 deg Mean anomaly: 297.6162 deg Mean motion: 14.55201137 rev/day Decay rate: 1.58e-06 rev/day^2 Epoch rev: 10804 Checksum: 329
Satellite: AO-51 Catalog number: 28375 Epoch time: 09120.45762449 Element set: 376 Inclination: 098.0545 deg RA of node: 132.8428 deg Eccentricity: 0.0083243 Arg of perigee: 270.6699 deg Mean anomaly: 088.4956 deg Mean motion: 14.40639906 rev/day Decay rate: 5.0e-08 rev/day^2 Epoch rev: 25408 Checksum: 336
Satellite: IO-26 Catalog number: 22826 Epoch time: 09120.47009369 Element set: 957 Inclination: 098.4262 deg RA of node: 076.1750 deg Eccentricity: 0.0009631 Arg of perigee: 045.9708 deg Mean anomaly: 314.2265 deg Mean motion: 14.29515303 rev/day Decay rate: -3.6e-07 rev/day^2 Epoch rev: 81319 Checksum: 307
Satellite: CO-55 Catalog number: 27844 Epoch time: 09120.52192696 Element set: 568 Inclination: 098.7148 deg RA of node: 130.3614 deg Eccentricity: 0.0008962 Arg of perigee: 283.0591 deg Mean anomaly: 076.9575 deg Mean motion: 14.20634239 rev/day Decay rate: 3.2e-07 rev/day^2 Epoch rev: 30249 Checksum: 321
Satellite: SO-50 Catalog number: 27607 Epoch time: 09120.54491094 Element set: 873 Inclination: 064.5582 deg RA of node: 169.7871 deg Eccentricity: 0.0072854 Arg of perigee: 215.9590 deg Mean anomaly: 143.6602 deg Mean motion: 14.71432156 rev/day Decay rate: 4.8e-07 rev/day^2 Epoch rev: 34166 Checksum: 318
Satellite: CO-57 Catalog number: 27848 Epoch time: 09120.56326383 Element set: 514 Inclination: 098.7159 deg RA of node: 129.4632 deg Eccentricity: 0.0009071 Arg of perigee: 289.1420 deg Mean anomaly: 070.8788 deg Mean motion: 14.20436743 rev/day Decay rate: 1.8e-07 rev/day^2 Epoch rev: 30246 Checksum: 315
Satellite: CO-56 Catalog number: 28941 Epoch time: 09120.58258952 Element set: 37 Inclination: 098.1390 deg RA of node: 286.3015 deg Eccentricity: 0.0096919 Arg of perigee: 311.1722 deg Mean anomaly: 048.1166 deg Mean motion: 15.79440784 rev/day Decay rate: 3.4106e-04 rev/day^2 Epoch rev: 17972 Checksum: 330
Satellite: GO-32 Catalog number: 25397 Epoch time: 09120.61580063 Element set: 881 Inclination: 098.3284 deg RA of node: 145.4981 deg Eccentricity: 0.0001979 Arg of perigee: 061.6806 deg Mean anomaly: 298.4579 deg Mean motion: 14.23157423 rev/day Decay rate: -8.6e-07 rev/day^2 Epoch rev: 56136 Checksum: 331
Satellite: CO-65 Catalog number: 32785 Epoch time: 09120.71119538 Element set: 352 Inclination: 097.9459 deg RA of node: 185.0603 deg Eccentricity: 0.0014589 Arg of perigee: 181.4169 deg Mean anomaly: 178.6997 deg Mean motion: 14.81474338 rev/day Decay rate: 1.09e-06 rev/day^2 Epoch rev: 5441 Checksum: 340
Satellite: SOHLA-1 Catalog number: 33496 Epoch time: 09120.72066172 Element set: 300 Inclination: 098.0337 deg RA of node: 230.7797 deg Eccentricity: 0.0007960 Arg of perigee: 076.4043 deg Mean anomaly: 283.8051 deg Mean motion: 14.69431009 rev/day Decay rate: 2.2e-07 rev/day^2 Epoch rev: 1430 Checksum: 270
/EX SB KEPS @ AMSAT $ORB09120.W Orbital Elements 09120.WEATHER
HR AMSAT ORBITAL ELEMENTS FOR WEATHER SATELLITES FROM WA5QGD FORT WORTH,TX April 30, 2009 Send Subscribe/unsubscribe to KEPS at http://www.amsat.org/mailman/listinfo/keps BID: ORB09120.W TO ALL RADIO AMATEURS BT
Satellite: NOAA-11 Catalog number: 19531 Epoch time: 09119.34247031 Element set: 0603 Inclination: 098.7819 deg RA of node: 210.0500 deg Eccentricity: 0.0010756 Arg of perigee: 247.1569 deg Mean anomaly: 112.8467 deg Mean motion: 14.14893533 rev/day Decay rate: -1.55e-06 rev/day^2 Epoch rev: 06261 Checksum: 284
Satellite: NOAA-15 Catalog number: 25338 Epoch time: 09119.66648152 Element set: 0907 Inclination: 098.5835 deg RA of node: 109.9448 deg Eccentricity: 0.0010379 Arg of perigee: 193.4016 deg Mean anomaly: 166.6896 deg Mean motion: 14.24754767 rev/day Decay rate: -1.33e-06 rev/day^2 Epoch rev: 56986 Checksum: 359
Satellite: NOAA-16 Catalog number: 26536 Epoch time: 09119.69987055 Element set: 0383 Inclination: 099.1769 deg RA of node: 122.1958 deg Eccentricity: 0.0011324 Arg of perigee: 060.5112 deg Mean anomaly: 299.7179 deg Mean motion: 14.12517125 rev/day Decay rate: 2.35e-06 rev/day^2 Epoch rev: 44345 Checksum: 320
Satellite: NOAA-10 Catalog number: 16969 Epoch time: 09119.71951223 Element set: 0593 Inclination: 098.6943 deg RA of node: 146.6233 deg Eccentricity: 0.0012223 Arg of perigee: 343.0246 deg Mean anomaly: 017.0514 deg Mean motion: 14.27385079 rev/day Decay rate: 3.0e-08 rev/day^2 Epoch rev: 17659 Checksum: 302
